Showing default

SKYSAT C7, 42991

Orbit data source: Space-Track

SKYSAT C7, 42991 is a payload satellite owned by Terra Bella (US) in SSO that was launched on Tue, 31 Oct 2017 UTC via a MINOTAUR-C 3210 launch vehicle from the Air Force Western Test Range (AFWTR). Payload-class satellites include a variety of spacecraft equipped with specific instruments for various scientific and technological missions. These include communications satellites like Starlink; space stations such as the ISS; scientific satellites like the Hubble; Earth observation satellites from companies like Planet Labs, Umbra, and HawkEye 360; GPS; miniature CubeSats for education and research; and military/defense satellites.

Loading next visibility...
Identifier
42991, 2017-068E
Orbit
SSO
Country
Flag of USUS
Related business
Manufacturer
Maxar SSL
Mission
Operational Commercial Imaging
Bus & Motor
SKYSAT-GEN2, Unknown motor
Mass
110 kg wet, 110 kg dry
Launch date (UTC)
2017-10-31 (8 years ago)
Launch vehicle
MINOTAUR-C 3210
Launch site
Air Force Western Test Range (AFWTR)
Object type
Payload
Rocket body
Debris
Shape & HBR
Box, 0.6 m
Radar Cross Section
0.888 m², Medium (>0.1 m² and < 1m²)

Expand to show TLE details & history
Last TLE update: 1 day ago

TLE from 1 day ago
0 SKYSAT C7
1 42991U 17068E   25257.16986167  .00008417  00000-0  28069-3 0  9990
2 42991  97.4193  28.0082 0005450  38.1108 322.0518 15.31317792440069
Epoch: 2025-09-14T04:04Z
TLE epoch observation values (Epoch: 2025-09-14T04:04:36.048Z)
Latitude
0.00001°
Longitude
-26.53472°
Altitude
472.041 km
Speed
7.632 km/s
True Right ascension
01h 52m 01s
True Declination
0° 00' 00"
Sunlit
Object was in full shadow at epoch
Visualization orbit readout
Latitude
Unknown
Longitude
Unknown
Altitude
Unknown
Speed
Unknown
Apparent Right ascension
Unknown
Apparent Declination
Unknown
Sunlit
N/A
Visualization observer readout
Local Sidereal Time
01:19:29
Azimuth
Unknown
Elevation
Unknown
Doppler factor
Unknown
Orbital elements
Apogee altitude
472.563 km
Perigee altitude
465.099 km
Semi-major axis
6,846.968 km
Eccentricity
0.00055
Inclination
97.4193°
RAAN
28.0082°
Arg. of periapsis
38.1108°
True anomaly
322.01337°
Mean anomaly
322.0518°
Eccentric anomaly
322.03259°
Mean motion
3.83086 °/min
Orbital period
93.97 mins
BSTAR
0.00028069
Loading maneuver chart data...
Computing Atmospheric mass density...
Loading historical data...
Loading historical data...
Loading historical data...
Loading historical data...
Loading historical data...
Loading historical data...
Loading historical data...

Documentation

Showing up to 5 results
|